Regional Weather Roundup
Issued by NWS

Home | Current Version | Previous Version | Text Only | Print | Product List | Glossary Off
Versions: 1 2 3 4 5 6 7 8 9 10 11 12 13 14 15 16 17 18 19 20 21 22 23 24 25 26 27 28 29 30 31 32 33 34 35 36 37 38 39 40 41 42 43 44 45 46 47 48 49 50

000
ASUS45 KSLC 290810
RWRUT

UTAH REGIONAL WEATHER ROUNDUP
NATIONAL WEATHER SERVICE SALT LAKE CITY UT
200 AM MDT MON JUN 29 2015

UTZ001>011-023>025-290900-

NORTHERN UTAH

CITY           SKY/WX    TMP DP  RH WIND       PRES   REMARKS
BRIGHAM CITY   CLEAR     89  35  14 E24G35    30.01S
HILL AFB       CLEAR     80  47  30 E18G28    30.04S
LOGAN          CLEAR     87  40  19 SW8G22    30.07R
OGDEN          CLEAR     87  42  20 NE15      30.01F
PROVO AIRPORT  CLEAR     72  52  49 CALM      30.05R
SALT LAKE CITY CLEAR     81  52  36 S6        29.99S
VERNAL         PTCLDY    80  40  23 N8        30.15R
WENDOVER       CLEAR     81  39  22 W3        30.00S
HEBER CITY     CLEAR     61  48  63 CALM      30.18R
WEST JORDAN    CLEAR     75  46  35 CALM      30.04F

$$

UTZ012>022-026-027-290900-

SOUTHERN/CENTRAL UTAH

CITY           SKY/WX    TMP DP  RH WIND       PRES   REMARKS
BLANDING       CLEAR     70  42  35 CALM      30.32S
BRYCE CANYON   CLEAR     53  45  74 W7        30.36F
CEDAR CITY     CLEAR     72  42  34 SE7       30.18S
DELTA          CLEAR     81  36  20 S13       30.06R
HANKSVILLE     PTCLDY    77  36  22 SE3       30.05S
MILFORD        CLEAR     76  41  28 SW15      30.10R
MOAB/CYNLANDS  CLEAR     84  41  21 SE12      30.04R
PRICE          PTCLDY    77  36  22 N7        30.16F
ST GEORGE      SUNNY     86  48  26 SE7       29.97R
KANAB          CLEAR     66  52  59 NE3       30.20S

$$

REGIONAL REPORTS     COLORADO/ARIZONA

CITY           SKY/WX    TMP DP  RH WIND       PRES   REMARKS
CRAIG, CO      MOCLDY    72  44  36 NE9       30.25S
GRAND JUNCTION PTCLDY    79  44  28 SE16      30.10R
RIFLE          MOCLDY    75  45  34 NE9       30.18S
MONTROSE       PTCLDY    74  45  35 SE15      30.22R
CORTEZ         CLEAR     72  42  34 VRB7      30.24F
PAGE, AZ       CLEAR     83  43  24 SW5       30.05S
GRAND CANYON   PTCLDY    57  46  66 CALM      30.32R
KINGMAN        PTCLDY    76  56  49 S7        30.03F
FLAGSTAFF      CLOUDY    63  54  72 SW13      30.36R

$$

REGIONAL REPORTS    NEVADA/IDAHO/WYOMING

CITY           SKY/WX    TMP DP  RH WIND       PRES   REMARKS
LAS VEGAS, NV  CLOUDY    97  45  16 S9        29.85F HX  93
ELY            PTCLDY    73  35  25 S12       30.21S
ELKO           MOCLDY    71  44  37 SW6       30.08S
POCATELLO, ID  CLEAR     70  51  51 NE7       30.07R
BURLEY         PTCLDY    67  57  70 CALM      30.00S
EVANSTON, WY   PTCLDY    67  39  35 E10       30.31S
ROCK SPRINGS   PTCLDY    66  41  40 E8        30.32S
KEMMERER       PTCLDY    61  43  51 N7        30.37F

$$



USA.gov is the U.S. government's official web portal to all federal, state and local government web resources and services.